Torna al catalogo

QUEQIAO

AttivoComunicazioniLPO
NORAD 43470·PAYLOAD·🇨🇳 China

Lanciato May 20, 2018 da Xichang Satellite Launch Center

Loading…

TLE

ObsoletoSource: Space-Track

Epoca: May 20, 2018, 23:16 UTC

1 43470U 18045A   18140.97000001 -.00010094 +00000-0 +00000-0 0  9992
2 43470 027.5020 209.5210 9658153 171.2240 002.0960 00.09844104000017

Traccia QUEQIAO in tempo reale con AllMySat

Download on the App Store